FW8242 Weather Reports


time (UTC)temp
C
wind
direction
speed
KPH
gust
KPH
rain 1hr
cm
rain 24hr
cm
rain mn
cm
humidity
%
barometer
mb
20260507052509 17 59 4.8 8.0 0.00 0.15 0.15 94 862.6
20260507052009 17 55 4.8 8.0 0.00 0.15 0.15 94 862.5
20260507051507 17 55 4.8 8.0 0.00 0.15 0.15 94 862.5
20260507051012 17 55 3.2 6.4 0.00 0.15 0.15 94 862.5
20260507050504 17 67 1.6 6.4 0.00 0.15 0.15 94 862.4
20260507050008 17 67 3.2 6.4 0.00 0.15 0.15 94 862.4
20260507045601 17 59 1.6 4.8 0.00 0.15 0.15 94 862.4
20260507045059 18 51 0.0 6.4 0.00 0.15 0.15 94 862.3
20260507044602 18 46 1.6 6.4 0.00 0.15 0.15 94 862.2
20260507044056 18 36 0.0 1.6 0.00 0.15 0.15 94 862.1
20260507043555 18 36 0.0 3.2 0.00 0.15 0.15 94 862.0
20260507043054 18 36 0.0 11.3 0.00 0.15 0.15 94 861.9
20260507042553 18 56 6.4 11.3 0.00 0.15 0.15 95 862.0
20260507042050 18 56 3.2 8.0 0.00 0.15 0.15 95 862.2
20260507041600 18 67 3.2 6.4 0.00 0.15 0.15 95 862.4
20260507041051 18 69 1.6 4.8 0.00 0.15 0.15 95 862.6
20260507040550 18 69 1.6 6.4 0.00 0.15 0.15 95 862.7
20260507040048 18 69 3.2 6.4 0.00 0.15 0.15 95 862.6
20260507035546 18 67 1.6 4.8 0.00 0.15 0.15 95 862.6
20260507035045 18 67 1.6 6.4 0.00 0.15 0.15 95 862.5
20260507034552 18 67 1.6 6.4 0.00 0.15 0.15 95 862.4
20260507034045 18 67 3.2 6.4 0.00 0.15 0.15 95 862.3
20260507033540 18 80 1.6 6.4 0.00 0.15 0.15 95 862.3
20260507033044 18 80 1.6 6.4 0.00 0.15 0.15 95 862.1
20260507032538 18 80 3.2 6.4 0.00 0.15 0.15 95 862.0
20260507032038 18 86 3.2 6.4 0.00 0.15 0.15 95 861.9
20260507031539 17 79 3.2 8.0 0.00 0.15 0.15 95 861.9
20260507031033 17 63 1.6 9.7 0.00 0.15 0.15 95 861.9
20260507030532 17 60 1.6 4.8 0.00 0.15 0.15 95 861.9
20260507030033 17 64 1.6 6.4 0.00 0.15 0.15 95 862.0
20260507025528 17 71 3.2 8.0 0.00 0.15 0.15 95 862.0
20260507025028 17 99 4.8 9.7 0.00 0.15 0.15 95 861.9
20260507024526 17 82 3.2 4.8 0.00 0.15 0.15 95 861.8
20260507024025 17 81 1.6 6.4 0.00 0.15 0.15 95 861.8
20260507023522 18 80 1.6 6.4 0.00 0.15 0.15 95 861.7
20260507023021 18 80 1.6 4.8 0.00 0.15 0.15 95 861.6
20260507022521 18 79 1.6 4.8 0.00 0.15 0.15 95 861.6
20260507022022 18 78 0.0 4.8 0.00 0.15 0.15 95 861.6
20260507021520 18 78 1.6 4.8 0.00 0.15 0.15 95 861.5
20260507021016 18 75 1.6 4.8 0.00 0.15 0.15 96 861.5
20260507020516 18 70 1.6 3.2 0.00 0.15 0.15 96 861.6
20260507020013 18 70 0.0 1.6 0.00 0.15 0.15 95 861.5
20260507015511 18 70 0.0 3.2 0.00 0.15 0.15 95 861.7
20260507015009 18 70 0.0 3.2 0.00 0.15 0.15 95 861.7
20260507014508 18 69 0.0 1.6 0.00 0.15 0.15 96 861.7
20260507014007 18 69 0.0 1.6 0.00 0.15 0.15 96 861.7
20260507013506 18 69 0.0 0.0 0.00 0.15 0.15 96 861.7
20260507013005 18 69 0.0 0.0 0.00 0.15 0.15 96 861.6
20260507012503 18 69 0.0 3.2 0.00 0.15 0.15 96 861.6
20260507012003 18 69 0.0 3.2 0.00 0.15 0.15 95 861.5
20260507011600 18 69 0.0 3.2 0.00 0.15 0.15 95 861.5
20260507011059 18 69 0.0 3.2 0.00 0.15 0.15 95 861.4
20260507010557 18 69 0.0 3.2 0.00 0.15 0.15 95 861.3
20260507005554 19 69 0.0 4.8 0.00 0.15 0.15 95 861.2
20260507005052 18 60 0.0 3.2 0.00 0.15 0.15 95 861.2
20260507004552 18 60 0.0 1.6 0.00 0.15 0.15 95 861.1
20260507004049 19 60 0.0 4.8 0.00 0.15 0.15 95 861.1
20260507003548 19 60 0.0 6.4 0.03 0.15 0.15 95 860.9
20260507003050 19 76 1.6 6.4 0.03 0.15 0.15 95 861.1
20260507002546 19 76 0.0 0.0 0.03 0.15 0.15 95 861.0
20260507002044 19 76 0.0 1.6 0.05 0.15 0.15 95 860.9
20260507001544 19 76 0.0 3.2 0.05 0.15 0.15 95 860.7
20260507001041 19 76 0.0 3.2 0.05 0.15 0.15 95 860.5
20260507000543 19 71 0.0 0.0 0.05 0.15 0.15 95 860.7
20260507000041 20 71 0.0 1.6 0.05 0.15 0.15 95 861.0
20260506235536 20 71 0.0 1.6 0.05 0.15 0.15 95 861.2
20260506235035 20 67 0.0 1.6 0.13 0.15 0.15 95 860.9
20260506234534 20 67 0.0 0.0 0.13 0.15 0.15 95 860.6
20260506234032 20 67 0.0 0.0 0.13 0.15 0.15 95 860.4
20260506233531 20 67 0.0 0.0 0.10 0.13 0.13 95 860.4
20260506233034 20 67 0.0 1.6 0.10 0.13 0.13 95 860.1
20260506232527 20 67 0.0 8.0 0.08 0.10 0.10 95 860.1
20260506232026 20 67 3.2 8.0 0.08 0.10 0.10 95 860.1
20260506231525 20 82 3.2 6.4 0.08 0.10 0.10 95 860.1
20260506231024 20 347 1.6 4.8 0.08 0.10 0.10 94 860.4
20260506230522 20 277 0.0 9.7 0.08 0.10 0.10 94 860.4
20260506230021 20 42 3.2 16.1 0.08 0.10 0.10 94 860.2
20260506225522 20 173 6.4 22.5 0.05 0.15 0.08 93 860.3
20260506225017 21 209 8.0 27.4 0.00 0.10 0.03 93 860.2
20260506224519 22 220 9.7 27.4 0.00 0.10 0.03 94 859.1
20260506224016 22 27 0.0 14.5 0.00 0.10 0.03 94 859.3
20260506223513 22 218 4.8 14.5 0.00 0.10 0.03 93 859.5
20260506223012 22 203 1.6 8.0 0.00 0.10 0.03 93 859.4
20260506222510 22 222 0.0 6.4 0.00 0.10 0.03 93 859.1
20260506222011 22 170 1.6 8.0 0.00 0.10 0.03 92 859.3
20260506221508 22 196 1.6 9.7 0.00 0.10 0.03 92 859.3
20260506221009 23 184 3.2 12.9 0.00 0.10 0.03 91 859.2
20260506220508 23 175 4.8 12.9 0.00 0.10 0.03 90 859.3
20260506220012 23 134 4.8 8.0 0.00 0.13 0.03 88 859.0
20260506215501 23 262 0.0 4.8 0.00 0.13 0.03 88 858.8
20260506215100 23 225 0.0 3.2 0.00 0.13 0.03 89 858.9
20260506214604 23 207 1.6 3.2 0.00 0.13 0.03 89 859.1
20260506214058 22 207 0.0 3.2 0.00 0.13 0.03 89 859.4
20260506213556 22 207 0.0 6.4 0.00 0.13 0.03 90 859.6
20260506213112 22 200 3.2 6.4 0.00 0.13 0.03 90 859.8
20260506212553 22 194 0.0 1.6 0.00 0.13 0.03 90 859.7
20260506212052 22 194 0.0 1.6 0.00 0.13 0.03 91 859.8
20260506211551 22 194 0.0 0.0 0.00 0.13 0.03 92 859.8
20260506211050 22 194 0.0 3.2 0.00 0.13 0.03 93 860.0
20260506210548 22 194 0.0 4.8 0.00 0.13 0.03 92 860.1
20260506210047 22 194 1.6 4.8 0.00 0.13 0.03 92 860.2
20260506205544 22 194 1.6 4.8 0.00 0.15 0.03 93 860.2
20260506205043 21 51 0.0 6.4 0.00 0.15 0.03 92 860.3
20260506204548 21 51 3.2 6.4 0.00 0.15 0.03 92 860.3
20260506204041 21 70 1.6 6.4 0.00 0.15 0.03 93 860.3
20260506203540 21 155 1.6 4.8 0.03 0.15 0.03 94 860.3
20260506203038 21 155 0.0 3.2 0.03 0.15 0.03 94 860.4
20260506202539 21 155 0.0 3.2 0.03 0.15 0.03 94 860.4
20260506202035 21 155 0.0 4.8 0.03 0.15 0.03 94 860.5
20260506201534 21 155 1.6 4.8 0.03 0.15 0.03 94 860.5
20260506201034 21 208 0.0 1.6 0.03 0.15 0.03 94 860.6
20260506200533 21 208 0.0 0.0 0.03 0.15 0.03 94 860.6
20260506200030 21 208 0.0 0.0 0.03 0.15 0.03 95 860.7
20260506195528 21 208 0.0 1.6 0.03 0.15 0.03 94 860.7
20260506195026 21 208 0.0 4.8 0.03 0.15 0.03 94 860.8
20260506194525 21 208 0.0 4.8 0.03 0.15 0.03 94 860.8
20260506194024 21 208 0.0 3.2 0.00 0.13 0.00 94 860.9
20260506193522 21 208 0.0 3.2 0.00 0.13 0.00 94 860.9
20260506193020 21 208 0.0 6.4 0.00 0.13 0.00 94 860.9
20260506192524 21 202 0.0 8.0 0.00 0.13 0.00 94 861.0
20260506192018 21 198 1.6 8.0 0.00 0.13 0.00 94 860.9
20260506191517 21 190 0.0 3.2 0.00 0.13 0.00 94 861.1
20260506191015 21 190 0.0 3.2 0.00 0.13 0.00 94 861.2
20260506190514 21 190 1.6 6.4 0.00 0.13 0.00 94 861.2
20260506190012 21 182 1.6 4.8 0.00 0.13 0.00 94 861.3
20260506185510 21 180 1.6 4.8 0.00 0.13 0.00 94 861.3
20260506185009 21 169 0.0 4.8 0.00 0.13 0.00 94 861.3
20260506184508 21 169 0.0 4.8 0.00 0.13 0.00 94 861.4
20260506184006 21 167 0.0 1.6 0.00 0.13 0.00 93 861.5
20260506183505 21 167 0.0 3.2 0.00 0.13 0.00 93 861.5
20260506183004 21 167 1.6 4.8 0.00 0.13 0.00 93 861.5
20260506182501 21 164 0.0 4.8 0.00 0.13 0.00 93 861.5
20260506182100 21 164 0.0 4.8 0.00 0.13 0.00 93 861.5
20260506181559 21 165 0.0 4.8 0.00 0.13 0.00 93 861.4
20260506181058 21 165 0.0 4.8 0.00 0.13 0.00 92 861.5
20260506180557 21 164 0.0 4.8 0.00 0.13 0.00 92 861.5
20260506180104 21 161 0.0 4.8 0.00 0.13 0.00 92 861.6
20260506175552 21 263 0.0 6.4 0.00 0.13 0.00 92 861.6
20260506175053 21 265 0.0 6.4 0.00 0.13 0.00 91 861.6
20260506174552 21 188 1.6 6.4 0.00 0.13 0.00 91 861.7
20260506174049 22 190 1.6 4.8 0.00 0.13 0.00 91 861.6
20260506173548 22 178 1.6 9.7 0.00 0.13 0.00 92 861.8
20260506173046 22 179 0.0 9.7 0.00 0.13 0.00 91 861.8
20260506172546 22 171 1.6 4.8 0.00 0.13 0.00 92 861.8
20260506172043 22 269 0.0 6.4 0.00 0.13 0.00 92 861.7
20260506171544 22 209 0.0 9.7 0.00 0.13 0.00 92 861.6
20260506171043 22 200 1.6 9.7 0.00 0.13 0.00 91 861.6
20260506170539 22 159 0.0 6.4 0.00 0.13 0.00 91 861.7
20260506170041 22 175 1.6 8.0 0.00 0.13 0.00 91 861.7
20260506165536 22 177 1.6 9.7 0.00 0.13 0.00 90 861.7
20260506165034 22 169 1.6 9.7 0.00 0.13 0.00 90 861.6
20260506164533 22 199 1.6 6.4 0.00 0.13 0.00 90 861.6
20260506164032 22 200 3.2 6.4 0.00 0.13 0.00 90 861.7
20260506163530 22 202 1.6 4.8 0.00 0.13 0.00 89 861.7
20260506163049 22 203 1.6 8.0 0.00 0.13 0.00 88 861.7
20260506162528 22 196 0.0 4.8 0.00 0.13 0.00 88 861.7
20260506162029 22 195 1.6 6.4 0.00 0.13 0.00 88 861.7
20260506161525 22 195 1.6 6.4 0.00 0.13 0.00 87 861.7
20260506161022 22 209 1.6 6.4 0.00 0.13 0.00 87 861.7
20260506160522 22 207 0.0 6.4 0.00 0.13 0.00 88 861.7
20260506160022 22 207 0.0 4.8 0.00 0.13 0.00 88 861.7
20260506155520 22 208 0.0 6.4 0.00 0.13 0.00 88 861.7
20260506155016 22 209 3.2 6.4 0.00 0.13 0.00 88 861.8
20260506154515 22 200 1.6 6.4 0.00 0.13 0.00 88 861.8
20260506154014 22 196 1.6 6.4 0.00 0.13 0.00 88 861.8
20260506153512 22 194 3.2 8.0 0.00 0.13 0.00 89 861.8
20260506153011 22 214 1.6 6.4 0.00 0.13 0.00 88 861.7
20260506152509 21 181 1.6 6.4 0.00 0.13 0.00 89 861.8
20260506152008 21 179 1.6 6.4 0.00 0.13 0.00 89 861.7
20260506151507 21 176 1.6 4.8 0.00 0.13 0.00 90 861.8
20260506151005 21 134 1.6 3.2 0.00 0.13 0.00 91 861.7
20260506150504 21 71 0.0 3.2 0.00 0.13 0.00 92 861.7
20260506150003 20 71 0.0 0.0 0.00 0.13 0.00 92 861.7
20260506145603 20 71 0.0 0.0 0.00 0.13 0.00 92 861.6
20260506145100 20 71 0.0 1.6 0.00 0.13 0.00 93 861.6
20260506144558 20 71 0.0 1.6 0.00 0.13 0.00 93 861.6
20260506144056 20 71 0.0 0.0 0.00 0.13 0.00 93 861.6
20260506143555 20 71 0.0 0.0 0.00 0.13 0.00 93 861.5
20260506143104 20 71 0.0 1.6 0.00 0.13 0.00 93 861.5
20260506142553 19 71 0.0 1.6 0.00 0.13 0.00 93 861.5
20260506142051 19 71 0.0 3.2 0.00 0.13 0.00 93 861.5
20260506141550 19 71 0.0 3.2 0.00 0.13 0.00 93 861.5
20260506141050 18 71 0.0 4.8 0.00 0.13 0.00 94 861.4
20260506140547 18 70 1.6 6.4 0.00 0.13 0.00 93 861.4
20260506140046 18 70 3.2 6.4 0.00 0.13 0.00 94 861.4
20260506135544 18 65 3.2 6.4 0.00 0.13 0.00 94 861.2
20260506135042 18 61 4.8 8.0 0.00 0.13 0.00 94 861.2
20260506134541 18 63 4.8 8.0 0.00 0.13 0.00 93 861.3
20260506134039 18 74 4.8 8.0 0.00 0.13 0.00 93 861.2
20260506133538 18 64 4.8 6.4 0.00 0.13 0.00 93 861.2
20260506133037 18 73 3.2 8.0 0.00 0.13 0.00 93 861.2
20260506132535 18 66 3.2 8.0 0.00 0.13 0.00 93 861.1
20260506132033 17 59 4.8 8.0 0.00 0.13 0.00 93 861.1
20260506131532 17 65 4.8 8.0 0.00 0.13 0.00 93 861.1
20260506131031 17 49 4.8 9.7 0.00 0.13 0.00 93 861.1
20260506130530 17 54 4.8 9.7 0.00 0.13 0.00 93 861.1
20260506130028 17 51 4.8 8.0 0.00 0.13 0.00 93 861.1
20260506125526 17 61 3.2 8.0 0.00 0.13 0.00 93 861.2
20260506125026 17 67 3.2 8.0 0.00 0.13 0.00 93 861.1
20260506124523 17 58 4.8 8.0 0.00 0.13 0.00 93 861.0
20260506124022 17 51 4.8 8.0 0.00 0.13 0.00 93 861.0
20260506123520 17 62 4.8 8.0 0.00 0.13 0.00 93 861.0
20260506123019 17 69 4.8 8.0 0.00 0.13 0.00 93 861.0
20260506122520 17 64 4.8 8.0 0.00 0.13 0.00 93 860.9
20260506122016 -17 0.0 0.0 0.00 0.13 0.00 860.8
20260506121515 -17 0.0 0.0 0.00 0.13 0.00 860.8
20260506121013 -17 0.0 0.0 0.00 0.13 0.00 860.7
20260506120512 -17 0.0 0.0 0.00 0.13 0.00 860.7
20260506120010 -17 0.0 0.0 0.00 0.13 0.00 860.6
20260506115509 -17 0.0 0.0 0.00 0.13 0.00 860.7
20260506115008 -17 0.0 0.0 0.00 0.13 0.00 860.5
20260506114509 -17 0.0 0.0 0.00 0.13 0.00 860.5
20260506114005 -17 0.0 0.0 0.00 0.13 0.00 860.5
20260506113503 -17 0.0 0.0 0.00 0.13 0.00 860.4
20260506113003 -17 0.0 0.0 0.00 0.13 0.00 860.4
20260506112600 -17 0.0 0.0 0.00 0.13 0.00 860.5
20260506112058 -17 0.0 0.0 0.00 0.13 0.00 860.4
20260506111557 -17 0.0 0.0 0.00 0.13 0.00 860.4
20260506111056 -17 0.0 0.0 0.00 0.13 0.00 860.3
20260506110554 -17 0.0 0.0 0.00 0.13 0.00 860.3
20260506110100 -17 0.0 0.0 0.00 0.13 0.00 860.3
20260506105553 -17 0.0 0.0 0.00 0.13 0.00 860.2
20260506105050 -17 0.0 0.0 0.00 0.13 0.00 860.2
20260506104550 -17 0.0 0.0 0.00 0.13 0.00 860.2
20260506104047 -17 0.0 0.0 0.00 0.13 0.00 860.2
20260506103547 -17 0.0 0.0 0.00 0.13 0.00 860.1
20260506103047 -17 0.0 0.0 0.00 0.13 0.00 860.1
20260506102543 -17 0.0 0.0 0.00 0.13 0.00 860.1
20260506102041 -17 0.0 0.0 0.00 0.13 0.00 860.1
20260506101542 -17 0.0 0.0 0.00 0.13 0.00 859.9
20260506101040 -17 0.0 0.0 0.00 0.13 0.00 859.9
20260506100538 -17 0.0 0.0 0.00 0.13 0.00 859.9
20260506100036 -17 0.0 0.0 0.00 0.13 0.00 859.8
20260506095536 -17 0.0 0.0 0.00 0.13 0.00 859.9
20260506095034 -17 0.0 0.0 0.00 0.13 0.00 859.9
20260506094535 -17 0.0 0.0 0.00 0.13 0.00 859.9
20260506094029 -17 0.0 0.0 0.00 0.13 0.00 859.9
20260506093532 -17 0.0 0.0 0.00 0.13 0.00 859.9
20260506093030 -17 0.0 0.0 0.00 0.13 0.00 859.9
20260506092525 -17 0.0 0.0 0.00 0.13 0.00 859.9
20260506092024 -17 0.0 0.0 0.00 0.13 0.00 860.0
20260506091523 -17 0.0 0.0 0.00 0.13 0.00 859.9
20260506091021 -17 0.0 0.0 0.00 0.13 0.00 859.9
20260506090519 -17 0.0 0.0 0.00 0.13 0.00 859.9
20260506090022 -17 0.0 0.0 0.00 0.13 0.00 860.0
20260506085519 -17 0.0 0.0 0.00 0.13 0.00 860.1
20260506085016 -17 0.0 0.0 0.00 0.13 0.00 860.2
20260506084514 -17 0.0 0.0 0.00 0.13 0.00 860.2
20260506084012 -17 0.0 0.0 0.00 0.13 0.00 860.3
20260506083512 -17 0.0 0.0 0.00 0.13 0.00 860.4
20260506083009 -17 0.0 0.0 0.00 0.13 0.00 860.5
20260506082507 -35 62 3.2 8.0 0.00 0.13 0.00 860.5
20260506082007 -35 62 3.2 8.0 0.00 0.13 0.00 860.5
20260506081505 17 58 4.8 8.0 0.00 0.13 0.00 96 860.4
20260506081005 17 60 4.8 8.0 0.00 0.13 0.00 96 860.4
20260506080504 17 66 3.2 6.4 0.00 0.13 0.00 96 860.5
20260506073501 17 63 3.2 6.4 0.00 0.13 0.00 95 861.0
20260506073109 17 63 3.2 6.4 0.00 0.13 0.00 95 861.0
20260506072600 17 60 3.2 4.8 0.00 0.13 0.00 95 861.0
20260506072059 17 60 1.6 6.4 0.00 0.13 0.00 95 861.0
20260506071600 17 60 3.2 6.4 0.00 0.13 0.00 95 861.0
20260506071058 17 70 1.6 4.8 0.00 0.13 0.00 95 861.0
20260506070558 17 70 1.6 4.8 0.00 0.13 0.00 95 861.0
20260506070109 17 70 1.6 4.8 0.00 0.13 0.00 95 861.1
20260506062053 17 68 1.6 6.4 0.00 0.13 0.00 96 861.1
20260506061553 17 68 3.2 6.4 0.00 0.13 0.00 96 861.1
20260506061053 17 68 3.2 6.4 0.00 0.13 0.00 96 861.1
20260506060553 17 68 1.6 6.4 0.00 0.13 0.00 96 861.2